THY882 LYTV-LTAC

Flight info

Callsign THY882
Flight time 1h 57m
Altitude 35000
Route LASTI L607 TRN N141 DOBAR M22 TALAS/N0449F350 UN130 TSL UM603 PEREN UN644 NONDU UW81 EKI UG12 YAA UG8 PIMAV UL614 TOKER UG8 PETAR
Aircraft B738/M-SDE1FGHIJ1RWXYZ/LB1

Departure

Time 2026-04-30 10:22
Airport Tivat Airport (LYTV)

Arrival

Time 2026-04-30 12:19
Airport Esenboğa International Airport (LTAC)
Time Latitude Longitude Altitude Speed Heading
2026-04-30 09:49 42.41128 18.71800 61 ft 0 kts 167°
2026-04-30 10:14 42.41117 18.71798 61 ft 2 kts 193°
2026-04-30 10:15 42.41107 18.71791 62 ft 3 kts 210°
2026-04-30 10:15 42.41080 18.71790 58 ft 3 kts 156°
2026-04-30 10:15 42.41067 18.71804 58 ft 4 kts 137°
2026-04-30 10:15 42.41047 18.71830 60 ft 4 kts 139°
2026-04-30 10:16 42.41024 18.71852 62 ft 4 kts 154°
2026-04-30 10:16 42.40994 18.71843 60 ft 5 kts 213°
2026-04-30 10:16 42.40970 18.71810 59 ft 5 kts 225°
2026-04-30 10:17 42.40900 18.71820 60 ft 8 kts 141°
2026-04-30 10:17 42.40717 18.72034 55 ft 27 kts 139°
2026-04-30 10:17 42.40575 18.72203 56 ft 27 kts 139°
2026-04-30 10:18 42.40439 18.72364 56 ft 25 kts 139°
2026-04-30 10:18 42.40312 18.72514 59 ft 23 kts 139°
2026-04-30 10:18 42.40193 18.72655 59 ft 22 kts 138°
2026-04-30 10:19 42.39964 18.72926 58 ft 21 kts 139°
2026-04-30 10:19 42.39855 18.73054 57 ft 21 kts 139°
2026-04-30 10:19 42.39749 18.73180 61 ft 19 kts 138°
2026-04-30 10:19 42.39662 18.73247 58 ft 11 kts 167°
2026-04-30 10:20 42.39617 18.73279 59 ft 4 kts 109°
2026-04-30 10:20 42.39655 18.73291 59 ft 5 kts 326°
2026-04-30 10:20 42.39663 18.73281 58 ft 0 kts 319°
2026-04-30 10:21 42.39727 18.73204 61 ft 43 kts 319°
2026-04-30 10:21 42.40146 18.72709 59 ft 115 kts 318°
2026-04-30 10:21 42.40894 18.71826 63 ft 171 kts 320°
2026-04-30 10:22 42.41812 18.70750 773 ft 171 kts 318°
2026-04-30 10:22 42.42284 18.69276 1589 ft 188 kts 274°
2026-04-30 10:22 42.41810 18.67502 1937 ft 218 kts 229°
2026-04-30 10:22 42.40565 18.66227 2438 ft 227 kts 212°
2026-04-30 10:23 42.39179 18.65129 3028 ft 234 kts 205°
2026-04-30 10:23 42.37644 18.64520 3773 ft 228 kts 185°
2026-04-30 10:23 42.36074 18.64206 4290 ft 235 kts 188°
2026-04-30 10:23 42.34446 18.63824 4956 ft 235 kts 189°
2026-04-30 10:24 42.32834 18.63456 5634 ft 236 kts 189°
2026-04-30 10:24 42.31228 18.63039 6210 ft 239 kts 200°
2026-04-30 10:24 42.29833 18.61857 6818 ft 237 kts 230°
2026-04-30 10:24 42.29071 18.59913 7386 ft 237 kts 254°
2026-04-30 10:25 42.28953 18.57604 7564 ft 260 kts 279°
2026-04-30 10:25 42.29352 18.55213 8206 ft 265 kts 284°
2026-04-30 10:25 42.29821 18.52799 9013 ft 268 kts 284°
2026-04-30 10:25 42.30306 18.50339 9709 ft 273 kts 285°
2026-04-30 10:26 42.30801 18.47840 10377 ft 277 kts 285°
2026-04-30 10:26 42.31227 18.45294 11094 ft 278 kts 275°
2026-04-30 10:26 42.31195 18.42673 11843 ft 279 kts 267°
2026-04-30 10:26 42.31032 18.40047 12587 ft 281 kts 263°
2026-04-30 10:27 42.30352 18.37554 13223 ft 289 kts 238°
2026-04-30 10:27 42.28890 18.35651 13891 ft 300 kts 214°
2026-04-30 10:27 42.26913 18.34653 14509 ft 311 kts 193°
2026-04-30 10:27 42.24714 18.34737 15160 ft 321 kts 174°
2026-04-30 10:28 42.22539 18.35375 15783 ft 326 kts 171°
2026-04-30 10:28 42.20363 18.36390 16382 ft 334 kts 161°
2026-04-30 10:28 42.18242 18.37724 16998 ft 338 kts 158°
2026-04-30 10:28 42.16116 18.39133 17695 ft 342 kts 158°
2026-04-30 10:29 42.13968 18.40584 18384 ft 346 kts 158°
2026-04-30 10:29 42.11850 18.42116 18926 ft 350 kts 155°
2026-04-30 10:29 42.09717 18.43740 19480 ft 353 kts 155°
2026-04-30 10:29 42.07565 18.45392 20065 ft 358 kts 155°
2026-04-30 10:30 42.05397 18.47064 20691 ft 360 kts 155°
2026-04-30 10:30 42.03215 18.48754 21265 ft 362 kts 155°
2026-04-30 10:30 42.01015 18.50461 21743 ft 366 kts 155°
2026-04-30 10:30 41.98825 18.52159 22230 ft 369 kts 155°
2026-04-30 10:31 41.96589 18.53893 22764 ft 373 kts 155°
2026-04-30 10:31 41.94331 18.55644 23349 ft 375 kts 155°
2026-04-30 10:31 41.92059 18.57409 23879 ft 379 kts 155°
2026-04-30 10:31 41.89770 18.59187 24335 ft 382 kts 155°
2026-04-30 10:32 41.87455 18.60993 24800 ft 386 kts 153°
2026-04-30 10:32 41.85998 18.62395 25086 ft 393 kts 143°
2026-04-30 10:32 41.83600 18.66126 25696 ft 403 kts 125°
2026-04-30 10:32 41.82226 18.69447 26208 ft 408 kts 115°
2026-04-30 10:33 41.81257 18.73056 26709 ft 412 kts 108°
2026-04-30 10:33 41.80456 18.76717 27274 ft 412 kts 106°
2026-04-30 10:33 41.79686 18.80421 27840 ft 411 kts 106°
2026-04-30 10:33 41.78935 18.84066 28397 ft 410 kts 106°
2026-04-30 10:34 41.78166 18.87760 28917 ft 410 kts 106°
2026-04-30 10:34 41.77388 18.91449 29423 ft 409 kts 106°
2026-04-30 10:34 41.76604 18.95119 29954 ft 409 kts 106°
2026-04-30 10:34 41.75827 18.98723 30431 ft 408 kts 107°
2026-04-30 10:35 41.75036 19.02367 30844 ft 407 kts 107°
2026-04-30 10:35 41.74241 19.06015 31220 ft 408 kts 107°
2026-04-30 10:35 41.73440 19.09678 31605 ft 407 kts 107°
2026-04-30 10:35 41.72644 19.13313 32031 ft 406 kts 107°
2026-04-30 10:36 41.71858 19.16898 32441 ft 406 kts 107°
2026-04-30 10:36 41.71061 19.20526 32792 ft 406 kts 107°
2026-04-30 10:36 41.70261 19.24157 33129 ft 406 kts 107°
2026-04-30 10:36 41.69461 19.27786 33506 ft 405 kts 107°
2026-04-30 10:37 41.68662 19.31407 33853 ft 404 kts 107°
2026-04-30 10:37 41.67873 19.34974 34150 ft 405 kts 107°
2026-04-30 10:37 41.67072 19.38590 34420 ft 404 kts 107°
2026-04-30 10:37 41.66273 19.42189 34710 ft 403 kts 107°
2026-04-30 10:38 41.65473 19.45788 34985 ft 403 kts 107°
2026-04-30 10:38 41.64672 19.49388 35115 ft 406 kts 107°
2026-04-30 10:38 41.63038 19.56709 35116 ft 418 kts 107°
2026-04-30 10:39 41.61340 19.64293 35116 ft 431 kts 107°
2026-04-30 10:39 41.59603 19.72023 35108 ft 436 kts 107°
2026-04-30 10:40 41.57877 19.79674 35088 ft 426 kts 107°
2026-04-30 10:40 41.56166 19.87238 35098 ft 425 kts 106°
2026-04-30 10:41 41.54457 19.94765 35102 ft 426 kts 107°
2026-04-30 10:41 41.52733 20.02331 35105 ft 426 kts 107°
2026-04-30 10:42 41.51001 20.09906 35110 ft 427 kts 107°
2026-04-30 10:42 41.49262 20.17487 35120 ft 427 kts 107°
2026-04-30 10:43 41.47521 20.25051 35120 ft 427 kts 107°
2026-04-30 10:43 41.45769 20.32636 35105 ft 427 kts 107°
2026-04-30 10:44 41.44024 20.40168 35094 ft 427 kts 107°
2026-04-30 10:44 41.42265 20.47735 35085 ft 426 kts 107°
2026-04-30 10:45 41.40506 20.55276 35082 ft 426 kts 107°
2026-04-30 10:45 41.38754 20.62762 35084 ft 425 kts 107°
2026-04-30 10:46 41.36986 20.70289 35078 ft 425 kts 107°
2026-04-30 10:46 41.35217 20.77797 35090 ft 424 kts 107°
2026-04-30 10:47 41.33446 20.85290 35077 ft 424 kts 107°
2026-04-30 10:47 41.31677 20.92749 35069 ft 424 kts 107°
2026-04-30 10:48 41.29892 21.00250 35077 ft 424 kts 107°
2026-04-30 10:48 41.28117 21.07682 35071 ft 424 kts 107°
2026-04-30 10:49 41.26329 21.15150 35064 ft 423 kts 107°
2026-04-30 10:49 41.24540 21.22594 35077 ft 422 kts 107°
2026-04-30 10:50 41.22754 21.30003 35085 ft 422 kts 107°
2026-04-30 10:50 41.20957 21.37435 35088 ft 422 kts 107°
2026-04-30 10:51 41.19155 21.44864 35075 ft 422 kts 107°
2026-04-30 10:51 41.17362 21.52230 35091 ft 421 kts 107°
2026-04-30 10:52 41.15559 21.59615 35091 ft 421 kts 108°
2026-04-30 10:52 41.13748 21.67013 35096 ft 420 kts 107°
2026-04-30 10:53 41.11937 21.74382 35099 ft 419 kts 108°
2026-04-30 10:53 41.10134 21.81706 35191 ft 422 kts 109°
2026-04-30 10:54 41.08251 21.89233 35121 ft 437 kts 114°
2026-04-30 10:54 41.05236 21.96233 35093 ft 435 kts 131°
2026-04-30 10:55 41.01590 22.02526 35078 ft 427 kts 132°
2026-04-30 10:55 40.97989 22.08716 35073 ft 422 kts 131°
2026-04-30 10:56 40.94453 22.14867 35078 ft 422 kts 131°
2026-04-30 10:56 40.90908 22.21062 35069 ft 422 kts 131°
2026-04-30 10:57 40.87354 22.27266 35067 ft 422 kts 131°
2026-04-30 10:57 40.83818 22.33425 35053 ft 422 kts 131°
2026-04-30 10:58 40.80259 22.39613 35056 ft 422 kts 131°
2026-04-30 10:58 40.76718 22.45754 35055 ft 422 kts 131°
2026-04-30 10:59 40.73153 22.51924 35052 ft 421 kts 131°
2026-04-30 10:59 40.69597 22.58069 35056 ft 421 kts 131°
2026-04-30 11:00 40.66055 22.64179 35053 ft 420 kts 131°
2026-04-30 11:00 40.62500 22.70302 35047 ft 420 kts 131°
2026-04-30 11:01 40.58964 22.76380 35052 ft 419 kts 131°
2026-04-30 11:01 40.55436 22.82431 35044 ft 418 kts 131°
2026-04-30 11:02 40.52469 22.87514 35042 ft 417 kts 131°
2026-04-30 11:02 40.48364 22.94531 35052 ft 416 kts 131°
2026-04-30 11:03 40.47297 22.96644 35024 ft 420 kts 118°
2026-04-30 11:03 40.46365 23.00267 35065 ft 421 kts 99°
2026-04-30 11:03 40.46281 23.04109 35036 ft 421 kts 78°
2026-04-30 11:04 40.47435 23.11642 35048 ft 424 kts 76°
2026-04-30 11:04 40.48617 23.19212 35039 ft 420 kts 77°
2026-04-30 11:05 40.49726 23.26694 35052 ft 417 kts 77°
2026-04-30 11:05 40.50806 23.34147 35054 ft 415 kts 77°
2026-04-30 11:06 40.51886 23.41627 35059 ft 415 kts 77°
2026-04-30 11:06 40.52955 23.49063 35068 ft 416 kts 77°
2026-04-30 11:07 40.54029 23.56594 35069 ft 419 kts 77°
2026-04-30 11:07 40.55095 23.64109 35072 ft 421 kts 77°
2026-04-30 11:08 40.56171 23.71729 35077 ft 424 kts 77°
2026-04-30 11:08 40.57240 23.79336 35082 ft 425 kts 77°
2026-04-30 11:09 40.58315 23.87025 35070 ft 426 kts 77°
2026-04-30 11:09 40.59377 23.94657 35076 ft 426 kts 77°
2026-04-30 11:10 40.60814 24.02204 35083 ft 423 kts 70°
2026-04-30 11:10 40.62609 24.09575 35070 ft 422 kts 69°
2026-04-30 11:11 40.64386 24.16906 35072 ft 421 kts 70°
2026-04-30 11:11 40.66126 24.24276 35076 ft 421 kts 70°
2026-04-30 11:12 40.67846 24.31658 35074 ft 420 kts 70°
2026-04-30 11:12 40.69544 24.38980 35082 ft 420 kts 70°
2026-04-30 11:13 40.71251 24.46357 35087 ft 420 kts 70°
2026-04-30 11:13 40.72956 24.53751 35079 ft 421 kts 70°
2026-04-30 11:14 40.74652 24.61125 35088 ft 422 kts 70°
2026-04-30 11:14 40.76360 24.68578 35077 ft 424 kts 70°
2026-04-30 11:15 40.78052 24.75981 35077 ft 424 kts 70°
2026-04-30 11:15 40.79755 24.83443 35080 ft 424 kts 70°
2026-04-30 11:16 40.81454 24.90915 35083 ft 425 kts 70°
2026-04-30 11:16 40.83141 24.98359 35079 ft 425 kts 70°
2026-04-30 11:17 40.84821 25.05805 35048 ft 415 kts 70°
2026-04-30 11:17 40.86444 25.13028 35071 ft 406 kts 70°
2026-04-30 11:18 40.88049 25.20169 35085 ft 407 kts 70°
2026-04-30 11:18 40.90471 25.30998 35081 ft 411 kts 70°
2026-04-30 11:19 40.92092 25.38275 35078 ft 414 kts 70°
2026-04-30 11:19 40.93711 25.45559 35080 ft 416 kts 70°
2026-04-30 11:20 40.95345 25.52940 35078 ft 418 kts 70°
2026-04-30 11:20 40.96974 25.60327 35081 ft 420 kts 70°
2026-04-30 11:21 40.98607 25.67754 35092 ft 420 kts 70°
2026-04-30 11:21 41.00229 25.75157 35090 ft 420 kts 70°
2026-04-30 11:22 41.01851 25.82585 35087 ft 418 kts 70°
2026-04-30 11:22 41.03459 25.89975 35085 ft 416 kts 70°
2026-04-30 11:23 41.05043 25.97278 35093 ft 414 kts 70°
2026-04-30 11:24 41.07414 26.08258 35100 ft 412 kts 70°
2026-04-30 11:24 41.08990 26.15582 35099 ft 414 kts 70°
2026-04-30 11:25 41.10588 26.23025 35110 ft 428 kts 70°
2026-04-30 11:25 41.11412 26.26880 35114 ft 436 kts 71°
2026-04-30 11:25 41.12678 26.34850 35096 ft 454 kts 85°
2026-04-30 11:26 41.12771 26.43349 35104 ft 468 kts 88°
2026-04-30 11:26 41.12794 26.52102 35106 ft 480 kts 88°
2026-04-30 11:27 41.12895 26.61062 35104 ft 491 kts 87°
2026-04-30 11:27 41.12431 26.70081 35094 ft 496 kts 102°
2026-04-30 11:28 41.09372 26.83169 35081 ft 488 kts 109°
2026-04-30 11:29 41.07280 26.91695 35084 ft 486 kts 108°
2026-04-30 11:29 41.04236 27.04472 35095 ft 487 kts 108°
2026-04-30 11:30 41.01173 27.17366 35105 ft 488 kts 108°
2026-04-30 11:31 40.99132 27.25895 35100 ft 489 kts 108°
2026-04-30 11:31 40.97063 27.34511 35105 ft 489 kts 108°
2026-04-30 11:32 40.95007 27.43044 35105 ft 489 kts 109°
2026-04-30 11:32 40.92840 27.51581 35105 ft 488 kts 110°
2026-04-30 11:33 40.89502 27.64301 35102 ft 487 kts 110°
2026-04-30 11:33 40.87300 27.72718 35107 ft 486 kts 110°
2026-04-30 11:34 40.85091 27.81165 35107 ft 485 kts 110°
2026-04-30 11:34 40.82886 27.89575 35106 ft 484 kts 110°
2026-04-30 11:35 40.80686 27.97938 35108 ft 483 kts 110°
2026-04-30 11:35 40.78473 28.06321 35109 ft 483 kts 110°
2026-04-30 11:36 40.76256 28.14687 35112 ft 482 kts 111°
2026-04-30 11:36 40.74047 28.22994 35104 ft 482 kts 111°
2026-04-30 11:37 40.71821 28.31341 35099 ft 481 kts 111°
2026-04-30 11:37 40.69596 28.39655 35098 ft 480 kts 111°
2026-04-30 11:38 40.67380 28.47906 35101 ft 480 kts 111°
2026-04-30 11:38 40.65144 28.56205 35095 ft 479 kts 111°
2026-04-30 11:39 40.62903 28.64496 35095 ft 479 kts 111°
2026-04-30 11:39 40.60670 28.72729 35090 ft 479 kts 111°
2026-04-30 11:40 40.58418 28.81006 35082 ft 480 kts 111°
2026-04-30 11:40 40.56173 28.89228 35084 ft 480 kts 111°
2026-04-30 11:41 40.53903 28.97516 35071 ft 481 kts 111°
2026-04-30 11:41 40.51639 29.05759 35069 ft 481 kts 112°
2026-04-30 11:42 40.49361 29.14028 35065 ft 481 kts 112°
2026-04-30 11:42 40.47272 29.22412 35049 ft 484 kts 102°
2026-04-30 11:43 40.46385 29.31126 35051 ft 484 kts 97°
2026-04-30 11:43 40.45618 29.39934 35049 ft 484 kts 97°
2026-04-30 11:44 40.44783 29.48661 35050 ft 483 kts 98°
2026-04-30 11:44 40.43910 29.57422 35045 ft 483 kts 98°
2026-04-30 11:45 40.43033 29.66184 35048 ft 483 kts 98°
2026-04-30 11:45 40.42153 29.74885 35052 ft 483 kts 98°
2026-04-30 11:46 40.41414 29.82153 35052 ft 483 kts 98°
2026-04-30 11:46 40.40373 29.92330 35052 ft 483 kts 98°
2026-04-30 11:47 40.39470 30.01075 35062 ft 483 kts 98°
2026-04-30 11:47 40.38561 30.09813 35064 ft 483 kts 98°
2026-04-30 11:48 40.37645 30.18550 35064 ft 483 kts 99°
2026-04-30 11:48 40.36730 30.27231 35068 ft 483 kts 99°
2026-04-30 11:49 40.35801 30.35980 35054 ft 483 kts 99°
2026-04-30 11:49 40.35026 30.43226 35061 ft 483 kts 99°
2026-04-30 11:50 40.33933 30.53368 35056 ft 482 kts 99°
2026-04-30 11:50 40.33148 30.60613 35058 ft 482 kts 99°
2026-04-30 11:51 40.32672 30.64984 34878 ft 485 kts 99°
2026-04-30 11:51 40.32190 30.69393 34408 ft 485 kts 99°
2026-04-30 11:51 40.31719 30.73690 34002 ft 481 kts 99°
2026-04-30 11:51 40.31244 30.78004 33496 ft 477 kts 99°
2026-04-30 11:52 40.30768 30.82307 33025 ft 473 kts 99°
2026-04-30 11:52 40.30295 30.86574 32581 ft 469 kts 99°
2026-04-30 11:52 40.29832 30.90739 32152 ft 466 kts 99°
2026-04-30 11:52 40.29363 30.94945 31722 ft 463 kts 99°
2026-04-30 11:53 40.28898 30.99096 31300 ft 459 kts 99°
2026-04-30 11:53 40.28435 31.03224 30882 ft 456 kts 99°
2026-04-30 11:53 40.27974 31.07315 30472 ft 453 kts 99°
2026-04-30 11:53 40.27514 31.11390 30055 ft 450 kts 99°
2026-04-30 11:54 40.27055 31.15441 29572 ft 447 kts 99°
2026-04-30 11:54 40.26603 31.19417 29122 ft 443 kts 99°
2026-04-30 11:54 40.26150 31.23393 28691 ft 439 kts 99°
2026-04-30 11:54 40.25699 31.27334 28265 ft 435 kts 100°
2026-04-30 11:55 40.25250 31.31242 27830 ft 432 kts 99°
2026-04-30 11:55 40.24809 31.35075 27410 ft 428 kts 100°
2026-04-30 11:55 40.24365 31.38928 27000 ft 426 kts 100°
2026-04-30 11:55 40.23922 31.42756 26573 ft 423 kts 100°
2026-04-30 11:56 40.23480 31.46558 26163 ft 420 kts 100°
2026-04-30 11:56 40.23045 31.50292 25765 ft 418 kts 100°
2026-04-30 11:56 40.22604 31.54064 25353 ft 416 kts 100°
2026-04-30 11:56 40.22166 31.57804 24944 ft 414 kts 100°
2026-04-30 11:57 40.21732 31.61496 24548 ft 412 kts 100°
2026-04-30 11:57 40.21297 31.65189 24126 ft 411 kts 100°
2026-04-30 11:57 40.20860 31.68889 23728 ft 409 kts 100°
2026-04-30 11:57 40.20424 31.72570 23244 ft 408 kts 100°
2026-04-30 11:58 40.19990 31.76229 22811 ft 406 kts 100°
2026-04-30 11:58 40.19703 31.78641 22521 ft 404 kts 100°
2026-04-30 11:58 40.19132 31.83431 21976 ft 400 kts 100°
2026-04-30 11:58 40.18703 31.87018 21572 ft 396 kts 100°
2026-04-30 11:59 40.18350 31.90586 21218 ft 392 kts 97°
2026-04-30 11:59 40.18096 31.94131 20824 ft 390 kts 96°
2026-04-30 11:59 40.17867 31.97652 20445 ft 387 kts 96°
2026-04-30 11:59 40.17627 32.01147 20058 ft 385 kts 96°
2026-04-30 12:00 40.17374 32.04632 19663 ft 383 kts 96°
2026-04-30 12:00 40.17150 32.08045 19276 ft 382 kts 92°
2026-04-30 12:00 40.17244 32.11504 18886 ft 380 kts 85°
2026-04-30 12:00 40.17473 32.14938 18507 ft 377 kts 84°
2026-04-30 12:01 40.17727 32.18368 18052 ft 376 kts 84°
2026-04-30 12:01 40.17980 32.21771 17639 ft 374 kts 84°
2026-04-30 12:01 40.18220 32.25102 17234 ft 371 kts 85°
2026-04-30 12:01 40.18453 32.28453 16853 ft 368 kts 85°
2026-04-30 12:02 40.18678 32.31785 16459 ft 366 kts 85°
2026-04-30 12:02 40.18897 32.35089 16079 ft 364 kts 85°
2026-04-30 12:02 40.19113 32.38387 15705 ft 361 kts 85°
2026-04-30 12:02 40.19325 32.41663 15331 ft 359 kts 85°
2026-04-30 12:03 40.19533 32.44875 14959 ft 358 kts 86°
2026-04-30 12:03 40.19947 32.51328 14215 ft 354 kts 86°
2026-04-30 12:03 40.20151 32.54539 13834 ft 352 kts 86°
2026-04-30 12:04 40.20350 32.57686 13443 ft 350 kts 86°
2026-04-30 12:04 40.20551 32.60861 13047 ft 348 kts 86°
2026-04-30 12:04 40.20749 32.64011 12664 ft 345 kts 86°
2026-04-30 12:04 40.20945 32.67134 12298 ft 342 kts 86°
2026-04-30 12:05 40.21135 32.70193 11938 ft 340 kts 86°
2026-04-30 12:05 40.21325 32.73271 11577 ft 338 kts 86°
2026-04-30 12:05 40.21516 32.76340 11209 ft 336 kts 85°
2026-04-30 12:05 40.21703 32.79381 10862 ft 334 kts 86°
2026-04-30 12:06 40.21887 32.82376 10498 ft 333 kts 85°
2026-04-30 12:06 40.22110 32.85380 10243 ft 328 kts 84°
2026-04-30 12:06 40.22362 32.88329 10064 ft 322 kts 83°
2026-04-30 12:06 40.22608 32.91230 9866 ft 317 kts 84°
2026-04-30 12:07 40.22842 32.94039 9872 ft 304 kts 84°
2026-04-30 12:07 40.23063 32.96707 9775 ft 295 kts 84°
2026-04-30 12:07 40.23282 32.99360 9571 ft 291 kts 84°
2026-04-30 12:07 40.23500 33.02011 9251 ft 290 kts 84°
2026-04-30 12:08 40.23710 33.04596 9190 ft 281 kts 84°
2026-04-30 12:08 40.23914 33.07104 9067 ft 274 kts 84°
2026-04-30 12:08 40.24109 33.09532 8897 ft 270 kts 84°
2026-04-30 12:08 40.24437 33.11921 8794 ft 262 kts 75°
2026-04-30 12:09 40.24957 33.14201 8649 ft 256 kts 72°
2026-04-30 12:09 40.25471 33.16343 8598 ft 243 kts 72°
2026-04-30 12:09 40.25955 33.18416 8429 ft 234 kts 73°
2026-04-30 12:09 40.26419 33.20447 8171 ft 231 kts 73°
2026-04-30 12:10 40.26877 33.22460 7908 ft 228 kts 74°
2026-04-30 12:10 40.27319 33.24414 7672 ft 226 kts 72°
2026-04-30 12:10 40.28081 33.26180 7387 ft 222 kts 44°
2026-04-30 12:10 40.29311 33.27349 7177 ft 215 kts 21°
2026-04-30 12:11 40.30721 33.27806 7000 ft 204 kts 358°
2026-04-30 12:11 40.32077 33.27545 6875 ft 193 kts 335°
2026-04-30 12:11 40.33201 33.26706 6797 ft 186 kts 314°
2026-04-30 12:11 40.34015 33.25425 6749 ft 181 kts 295°
2026-04-30 12:12 40.34424 33.23915 6760 ft 174 kts 276°
2026-04-30 12:12 40.34411 33.22353 6728 ft 171 kts 253°
2026-04-30 12:12 40.33759 33.21095 6731 ft 166 kts 229°
2026-04-30 12:12 40.32984 33.19945 6708 ft 169 kts 230°
2026-04-30 12:13 40.32212 33.18773 6733 ft 171 kts 230°
2026-04-30 12:13 40.31395 33.17618 6737 ft 179 kts 224°
2026-04-30 12:13 40.30434 33.16555 6751 ft 180 kts 220°
2026-04-30 12:13 40.29426 33.15541 6658 ft 184 kts 218°
2026-04-30 12:14 40.28405 33.14559 6551 ft 182 kts 218°
2026-04-30 12:14 40.27386 33.13582 6339 ft 180 kts 217°
2026-04-30 12:14 40.26404 33.12649 6128 ft 167 kts 218°
2026-04-30 12:14 40.25508 33.11790 5922 ft 154 kts 219°
2026-04-30 12:15 40.24649 33.10967 5712 ft 154 kts 218°
2026-04-30 12:15 40.23784 33.10139 5540 ft 151 kts 218°
2026-04-30 12:15 40.22925 33.09317 5321 ft 154 kts 218°
2026-04-30 12:15 40.22070 33.08498 5103 ft 148 kts 218°
2026-04-30 12:16 40.21246 33.07715 4939 ft 145 kts 218°
2026-04-30 12:16 40.20423 33.06932 4736 ft 149 kts 218°
2026-04-30 12:16 40.19577 33.06124 4508 ft 149 kts 218°
2026-04-30 12:16 40.18735 33.05317 4300 ft 151 kts 218°
2026-04-30 12:17 40.17026 33.03685 3883 ft 150 kts 219°
2026-04-30 12:17 40.16203 33.02896 3681 ft 148 kts 219°
2026-04-30 12:17 40.15371 33.02099 3475 ft 147 kts 219°
2026-04-30 12:18 40.14563 33.01328 3288 ft 142 kts 218°
2026-04-30 12:18 40.13760 33.00575 3141 ft 140 kts 217°
2026-04-30 12:18 40.13020 32.99862 3134 ft 116 kts 216°
2026-04-30 12:18 40.12488 32.99349 3134 ft 73 kts 217°
2026-04-30 12:19 40.12177 32.99050 3134 ft 41 kts 217°
2026-04-30 12:19 40.11994 32.98882 3134 ft 16 kts 206°
2026-04-30 12:19 40.11899 32.98888 3134 ft 12 kts 144°
2026-04-30 12:19 40.11845 32.98968 3134 ft 12 kts 124°
2026-04-30 12:20 40.11797 32.99055 3133 ft 12 kts 125°
2026-04-30 12:20 40.11741 32.99116 3133 ft 10 kts 158°
2026-04-30 12:20 40.11681 32.99143 3133 ft 8 kts 153°
2026-04-30 12:20 40.11637 32.99176 3133 ft 5 kts 150°
2026-04-30 12:21 40.11633 32.99179 3133 ft 0 kts 150°